Location: Dr?ge?ti
(46.3000°N, 22.8000°E)
Time: 21:34:05
(UTC+00:00)

Daily predictions for brighter satellites

Satellite Brightness Start Highest point End
(mag) Time Altitude Azimuth Time Altitude Azimuth Time Altitude Azimuth
Cosmos 2279 Rocket 4.2 15:36:25 10° N 15:42:26 49° ENE 15:48:23 10° SSE
Meteor 1-12 Rocket 4.3 15:39:12 10° N 15:44:57 78° E 15:50:46 10° SSE
Cosmos 2228 Rocket 3.9 15:43:09 10° SSE 15:47:10 32° E 15:51:13 10° NNE
Cosmos 1898 Rocket 4.2 15:44:23 10° N 15:49:07 32° ENE 15:53:51 10° ESE
Cosmos 1980 4.0 15:51:05 10° S 15:56:26 46° ESE 16:01:48 10° NE
PSLV R/B 3.4 15:52:29 10° SSE 15:56:30 68° ENE 16:00:34 10° N
SL-16 R/B 3.9 15:54:06 10° ESE 15:56:30 13° E 15:58:55 10° ENE
Meteor 1-23 Rocket 4.5 15:54:58 10° SSW 16:00:34 75° WNW 16:06:10 10° N
Okean 1-7 4.1 15:58:27 10° SE 16:01:52 24° E 16:05:18 10° NE
SMAP 3.4 15:58:55 10° S 16:03:33 73° WSW 16:08:14 10° NNW
NOSS 0 Rocket 3.9 15:57:56 10° SSW 16:04:03 73° ESE 16:10:11 10° NNE
ATLAS 2AS CENTAUR R/B 3.4 15:59:05 10° NNW 16:05:13 33° NNE 16:11:11 10° E
Lacrosse 5 4.1 16:02:40 10° WNW 16:07:02 29° SW 16:11:23 10° S
NOSS 8 (H) 4.5 16:04:08 10° SW 16:08:18 79° SE 16:11:15 12° NE
Cosmos 1953 2.1 16:05:19 10° N 16:09:00 56° ENE 16:12:39 10° SSE
SL-16 R/B 4.4 16:05:16 10° N 16:10:22 27° WNW 16:15:29 10° WSW
Cosmos 1818 4.4 16:06:06 10° NNW 16:10:54 30° NE 16:15:36 10° E
ACS3 Solar Sail 2.3 16:05:23 10° SE 16:11:16 40° ENE 16:17:09 10° N
Cosmos 2369 Rocket 3.6 16:09:07 10° N 16:12:47 17° NE 16:15:05 14° ENE
SKYMED 2 4.0 16:09:02 10° NNE 16:13:08 39° E 16:17:12 10° SSE
COSMOS 2428 3.2 16:07:47 10° SW 16:13:25 62° WNW 16:19:05 10° NNE
Cosmos 2333 Rocket 4.4 16:11:25 10° W 16:15:19 19° NW 16:19:15 10° N
Cosmos 990 Rocket 4.4 16:13:04 10° NNW 16:18:18 70° WSW 16:23:29 10° S
Cosmos 372 Rocket 4.0 16:14:41 10° NNW 16:19:40 52° ENE 16:24:36 10° SE
DNEPR-1 R/B 3.5 16:14:52 10° NW 16:19:44 70° NE 16:23:58 10° SE
IGS 5A 3.5 16:16:43 10° S 16:20:44 79° WSW 16:24:46 10° NNW
Cosmos 1174 3.8 16:17:10 10° NW 16:20:52 86° SW 16:25:22 10° SSE
EO 1 Delta rocket 4.2 16:19:25 10° NNE 16:23:54 43° E 16:28:21 10° SSE
Cosmos 2360 Rocket 4.5 16:24:19 10° WNW 16:27:49 16° NW 16:31:20 10° N
Meteor 1-16 Rocket 4.5 16:22:48 10° NNW 16:28:16 73° W 16:33:52 10° S
Cosmos 1908 Rocket 4.2 16:26:56 10° N 16:30:52 32° ENE 16:34:45 10° SE
Cosmos 2344 3.7 16:23:53 10° SW 16:31:30 72° NW 16:38:47 10° NE
BREEZE-M TANK 3.4 16:28:39 10° W 16:32:11 56° SSW 16:38:32 10° ESE
Cosmos 1707 Rocket 3.7 16:31:43 10° SSW 16:36:10 79° W 16:40:37 10° N
Okean 3 3.7 16:32:20 10° SSW 16:36:24 70° W 16:40:33 10° N
Meteor 1-31 Rocket 2.6 16:34:13 10° SSE 16:37:40 51° ENE 16:41:10 10° N
Cosmos 1937 Rocket 3.5 16:34:23 10° NNW 16:39:27 58° ENE 16:44:32 10° SE
Okean 2 3.4 16:36:52 10° SSW 16:40:48 78° W 16:44:46 10° N
CZ-4 R/B 4.4 16:40:00 10° S 16:44:00 79° WSW 16:48:01 10° NNW
Cosmos 1943 Rocket 2.6 16:41:13 10° NNW 16:46:50 66° WSW 16:52:22 10° SSE
CZ-2C R/B 3.6 16:48:33 25° NNE 16:48:33 25° NNE 16:50:21 10° N
Cosmos 2237 Rocket 2.4 16:44:49 10° SSW 16:50:30 75° WNW 16:56:08 11° NNE
RESURS DK-1 3.1 16:49:46 10° NW 16:53:43 54° WSW 16:57:37 10° S
NOAA 15 4.5 16:48:50 10° SSE 16:54:01 70° ENE 16:59:14 10° N
Cosmos 1862 Rocket 4.2 16:49:48 10° SSW 16:54:06 57° WNW 16:58:27 10° N
NOAA 6 3.9 16:54:25 10° SSE 16:59:31 87° ENE 17:04:41 10° NNW
BlueWalker 3 2.3 16:56:06 10° NW 16:59:36 41° NNE 16:59:51 41° NNE
BREEZE-M DEB (TANK) 1.9 16:57:25 10° W 16:59:44 52° N 17:00:09 47° NNE
Cosmos 2278 Rocket 3.6 16:55:32 10° NW 17:00:46 40° WSW 17:05:58 10° S
COSMO-SKYMED 1 2.9 16:56:59 10° N 17:01:19 65° WNW 17:05:36 10° SSW
CZ-4B R/B 3.6 16:59:02 10° S 17:02:39 80° WSW 17:06:13 10° NNW
CZ-4C R/B 1.8 17:00:51 10° SW 17:05:12 83° NW 17:08:01 28° NE
ISS -3.5 17:02:29 10° W 17:05:47 56° NNW 17:06:06 52° N
Nadezhda 4 Rocket 4.0 17:01:30 10° S 17:07:37 84° W 17:13:49 10° N
YAOGAN 1 2.6 17:07:22 10° S 17:11:38 79° WSW 17:15:56 10° NNW
Cosmos 2195 Rocket 4.3 17:06:02 10° S 17:12:12 71° E 17:18:19 10° NNE
Meteor 1-24 Rocket 4.1 17:09:12 10° SSE 17:14:42 42° E 17:15:51 38° ENE
USA 306 4.4 17:12:24 10° NW 17:12:55 14° NNW 17:12:55 14° NNW
ATLAS 5 CENTAUR R/B 1.1 17:11:45 10° SSW 17:14:21 56° S 17:14:21 56° S
YAOGAN 11 3.9 17:14:11 47° NE 17:15:16 68° ESE 17:19:31 10° S
USA 215 4.2 17:16:12 24° NE 17:19:08 35° N 17:24:57 10° WNW
SPOT 1/Viking Rocket 3.4 17:14:12 10° SSE 17:19:21 78° ENE 17:24:31 10° N
Cosmos 1703 Rocket 3.5 17:18:22 10° S 17:22:49 88° W 17:25:05 29° N
Meteor 2-5 Rocket 3.9 17:19:30 10° SSE 17:24:59 48° E 17:25:02 48° E
Resurs 1-3 3.4 17:22:55 10° SSE 17:27:14 88° WSW 17:31:36 10° NNW
Cosmos 841 Rocket 4.0 17:26:17 10° SW 17:31:27 57° WNW 17:35:00 20° N
Cosmos 1656 Rocket 3.5 17:26:04 10° NNW 17:31:35 77° ENE 17:33:23 44° SE
Cosmos 1703 4.0 17:32:48 10° SSW 17:36:12 45° WNW 17:36:27 44° WNW
SL-16 R/B 2.0 17:34:00 10° SSW 17:39:40 84° ESE 17:40:55 57° NE
Cosmos 1553 Rocket 4.1 17:34:08 10° N 17:39:07 49° NE 17:39:07 49° NE
ADEOS 3.9 17:48:47 52° N 17:48:47 52° N 17:52:46 10° N
Cosmos 1092 Rocket 4.1 17:47:23 10° SSW 17:53:33 74° W 17:59:48 10° N
ACS3 Solar Sail 3.2 17:48:51 10° SSW 17:54:47 40° W 18:00:46 10° NNW
Cosmos 1818 4.0 17:49:26 10° NW 17:54:49 60° WSW 17:56:19 44° S
Cosmos 839 Rocket 3.8 17:49:08 10° SSW 17:55:44 75° ESE 17:55:54 74° ESE
ATLAS 2AS CENTAUR R/B 2.7 17:49:57 10° NW 17:56:43 75° SW 17:59:05 43° SSE
Cosmos 2369 Rocket 2.2 17:52:05 10° NNW 17:56:54 66° N 17:56:54 66° N
Cosmos 2297 4.1 18:15:01 10° NNW 18:20:18 59° W 18:20:18 59° W
BREEZE-M DEB (TANK) 4.0 18:21:44 10° W 18:28:56 45° WNW 18:28:56 45° WNW
CZ-4C R/B 4.2 18:50:36 10° WNW 18:53:04 20° NW 18:53:04 20° NW
